Location: Trout Lake
(45.9980°N, 121.5270°W)
Time: 22:13:48
(UTC-07:00)

COSMOS 2455 - Pass Details

Date: 06 December 2023
Orbit: 898 x 910 km, 67.1° (Epoch: 07 October)

Event Time Altitude Azimuth Distance (km) Brightness Sun altitude
Rises 19:30:33 0° 221° (SW) 3,520 6.4 -32.0°
Reaches altitude 10° 19:33:05 10° 224° (SW) 2,580 5.7 -32.4°
Enters shadow 19:38:08 57° 264° (W) 1,058 3.3 -33.3°
